Weather History for KHUL - May, 2013

Change the Weather History Date:

Monday, May 20, 2013

  Actual Average Record
Temperature  
Mean Temperature 49 °F 52 °F  
Max Temperature 53 °F 65 °F 86 °F (1951)
Min Temperature 45 °F 40 °F 26 °F (1994)
Degree Days  
Heating Degree Days 16 13  
Month to date heating degree days 250 313  
Since 1 July heating degree days 8227 8886  
Cooling Degree Days 0 0  
Month to date cooling degree days 0 0  
Year to date cooling degree days 0 0  
Moisture  
Dew Point 48 °F    
Average Humidity 88    
Maximum Humidity 100    
Minimum Humidity 76    
Precipitation  
Precipitation 0.34 in 0.12 in 0.68 in (1969)
Month to date precipitation 1.10 2.09  
Year to date precipitation 6.62 13.42  
Snow  
Snow 0.00 in 0.00 in 0.00 in (2003)
Month to date snowfall 0.0 0.1  
Snow Depth 0.00 in    
Sea Level Pressure  
Sea Level Pressure 30.03 in    
Wind  
Wind Speed 5 mph (SSE)    
Max Wind Speed 10 mph    
Max Gust Speed 20 mph    
Visibility 5 miles    
Events Rain    
T = Trace of Precipitation, MM = Missing Value Source: NWS Daily Summary

Daily Weather History Graph

Daily Weather History Graph

Search for Another Location

Airport or City:

Trip Planner

Search our weather history database for the weather conditions in past years. The results will help you decide how hot, cold, wet, or windy it might be!

Date:

Astronomy

May. 20, 2013 Rise Set
Actual Time 4:52 AM EDT 8:03 PM EDT
Civil Twilight 4:17 AM EDT 8:39 PM EDT
Nautical Twilight 3:30 AM EDT 9:26 PM EDT
Astronomical Twilight 2:33 AM EDT 10:23 PM EDT
Moon 2:51 PM EDT (5/20) 2:03 AM EDT (5/20)
Length of Visible Light 16h 22m
Length of Day
15h 10m
Waxing Gibbous, 75% of the Moon is Illuminated
May 20
Waxing Gibbous
May 25
Full
May 31
Last Quarter
Jun 8
New
Jun 16
First Quarter

Hourly Weather History & Observations

Time (EDT) Temp. Windchill Dew Point Humidity Pressure Visibility Wind Dir Wind Speed Gust Speed Precip Events Conditions
12:53 AM 46.9 °F - 39.0 °F 74% 30.23 in 10.0 mi Variable 3.5 mph - N/A   Clear
1:53 AM 46.0 °F 44.8 °F 39.0 °F 76% 30.22 in 10.0 mi South 3.5 mph - N/A   Clear
2:38 AM 44.6 °F 43.1 °F 39.2 °F 81% 30.18 in 10.0 mi Variable 3.5 mph - N/A   Overcast
2:53 AM 45.0 °F - 41.0 °F 86% 30.19 in 10.0 mi Calm Calm - N/A   Overcast
3:20 AM 46.4 °F - 42.8 °F 87% 30.17 in 10.0 mi Calm Calm - N/A   Overcast
3:53 AM 46.0 °F 44.8 °F 43.0 °F 89% 30.16 in 10.0 mi SE 3.5 mph - N/A   Overcast
4:53 AM 46.0 °F 42.5 °F 45.0 °F 96% 30.14 in 8.0 mi South 6.9 mph - 0.00 in Rain Light Rain
5:53 AM 46.9 °F - 45.0 °F 93% 30.11 in 4.0 mi SSE 5.8 mph - 0.02 in Rain Light Rain
6:53 AM 46.4 °F 41.9 °F 46.4 °F 100% 30.09 in 3.0 mi SE 9.2 mph - N/A Rain Light Rain
7:00 AM 46.4 °F 42.9 °F 46.4 °F 100% 30.09 in 3.0 mi SSE 6.9 mph - 0.02 in Rain Rain
7:05 AM 46.4 °F 43.5 °F 46.4 °F 100% 30.08 in 2.5 mi SSE 5.8 mph - 0.03 in Rain Rain
7:11 AM 46.4 °F 42.4 °F 46.4 °F 100% 30.08 in 3.0 mi SSE 8.1 mph - 0.04 in Rain Light Rain
7:32 AM 48.2 °F - 46.4 °F 93% 30.09 in 5.0 mi SSE 8.1 mph - N/A Rain Light Rain
7:53 AM 48.2 °F - 46.4 °F 93% 30.08 in 4.0 mi SSE 8.1 mph - N/A Rain Light Rain
8:32 AM 48.2 °F - 46.4 °F 93% 30.06 in 8.0 mi SE 8.1 mph - 0.04 in Rain Light Rain
8:53 AM 48.9 °F - 46.9 °F 93% 30.07 in 6.0 mi SSE 9.2 mph 17.3 mph 0.06 in Rain Light Rain
9:16 AM 50.0 °F - 48.2 °F 94% 30.05 in 4.0 mi SSE 9.2 mph - 0.01 in Rain Light Rain
9:41 AM 50.0 °F - 48.2 °F 94% 30.04 in 5.0 mi SSE 11.5 mph 20.7 mph 0.02 in Rain Light Rain
9:47 AM 50.0 °F - 48.2 °F 94% 30.04 in 6.0 mi SSE 8.1 mph 20.7 mph 0.02 in Rain Light Rain
9:53 AM 50.0 °F - 48.0 °F 93% 30.06 in 7.0 mi SSE 8.1 mph 17.3 mph 0.02 in Rain Light Rain
10:37 AM 51.8 °F - 48.2 °F 88% 30.03 in 5.0 mi SSE 10.4 mph 21.9 mph 0.02 in Rain Light Rain
10:53 AM 51.1 °F - 48.9 °F 92% 30.04 in 6.0 mi SSE 9.2 mph 19.6 mph 0.02 in Rain Light Rain
11:06 AM 51.8 °F - 48.2 °F 88% 30.02 in 4.0 mi SSE 11.5 mph 19.6 mph 0.00 in Rain Light Rain
11:53 AM 51.1 °F - 48.9 °F 92% 30.02 in 3.0 mi South 10.4 mph 17.3 mph 0.01 in Rain Light Rain
12:53 PM 51.1 °F - 50.0 °F 96% 30.00 in 2.5 mi SSE 5.8 mph - 0.01 in Rain Light Rain
1:07 PM 51.8 °F - 50.0 °F 94% 29.99 in 3.0 mi South 5.8 mph - N/A   Overcast
1:21 PM 51.8 °F - 50.0 °F 94% 29.98 in 2.0 mi SE 5.8 mph - 0.01 in Rain Light Rain
1:43 PM 51.8 °F - 50.0 °F 94% 29.98 in 2.0 mi SSE 6.9 mph - 0.02 in Rain Light Rain
1:53 PM 52.0 °F - 50.0 °F 93% 29.99 in 1.8 mi SSE 9.2 mph - 0.02 in Rain Light Rain
2:11 PM 51.8 °F - 51.8 °F 100% 29.97 in 2.0 mi Variable 5.8 mph - 0.01 in Rain Light Rain
2:38 PM 53.6 °F - 51.8 °F 94% 29.97 in 3.0 mi SSE 3.5 mph - 0.02 in   Overcast
2:49 PM 51.8 °F - 50.0 °F 94% 29.97 in 2.5 mi SSE 9.2 mph - 0.02 in   Overcast
2:50 PM 52.0 °F - 50.0 °F 93% 29.98 in 2.5 mi SSE 9.2 mph - 0.02 in   Overcast
2:55 PM 51.8 °F - 50.0 °F 94% 29.97 in 3.0 mi SSE 8.1 mph - N/A   Overcast
3:20 PM 53.6 °F - 51.8 °F 94% 29.96 in 2.0 mi SSE 8.1 mph - 0.00 in Rain Light Rain
3:29 PM 51.8 °F - 51.8 °F 100% 29.96 in 2.5 mi SSE 5.8 mph - 0.01 in   Overcast
3:53 PM 52.0 °F - 50.0 °F 93% 29.97 in 3.0 mi SSE 4.6 mph - 0.01 in   Overcast
4:15 PM 51.8 °F - 50.0 °F 94% 29.96 in 3.0 mi SSE 6.9 mph - N/A   Overcast
4:22 PM 51.8 °F - 50.0 °F 94% 29.96 in 3.0 mi SSE 6.9 mph - N/A   Overcast
4:43 PM 51.8 °F - 50.0 °F 94% 29.96 in 4.0 mi South 6.9 mph - N/A   Overcast
4:53 PM 52.0 °F - 50.0 °F 93% 29.97 in 6.0 mi SSE 6.9 mph - N/A   Overcast
5:09 PM 51.8 °F - 51.8 °F 100% 29.96 in 7.0 mi South 6.9 mph - N/A   Overcast
5:24 PM 51.8 °F - 51.8 °F 100% 29.97 in 5.0 mi SE 4.6 mph - N/A   Overcast
5:53 PM 52.0 °F - 50.0 °F 93% 29.98 in 4.0 mi SSE 4.6 mph - N/A   Overcast
6:53 PM 51.1 °F - 50.0 °F 96% 29.99 in 9.0 mi South 4.6 mph - N/A   Overcast
7:53 PM 50.0 °F - 48.9 °F 96% 30.00 in 10.0 mi South 3.5 mph - N/A   Overcast
8:53 PM 50.0 °F - 48.9 °F 96% 30.00 in 8.0 mi Calm Calm - N/A   Overcast
9:03 PM 50.0 °F - 48.2 °F 94% 29.99 in 6.0 mi South 4.6 mph - N/A   Overcast
10:53 PM 48.9 °F - 48.9 °F 100% 30.01 in 5.0 mi Calm Calm - N/A   Overcast
11:36 PM 48.2 °F - 48.2 °F 100% 30.00 in 2.5 mi South 3.5 mph - N/A   Overcast
11:49 PM 48.2 °F - 48.2 °F 100% 29.99 in 1.5 mi SSW 4.6 mph - N/A   Overcast
11:53 PM 48.9 °F - 48.9 °F 100% 30.01 in 1.5 mi SSW 4.6 mph - N/A   Overcast